STARLINK-36732, 67813

Orbit data source: Space-Track

STARLINK-36732, 67813 is a payload satellite owned by SpaceX/Seattle (US) in SSO that was launched on Sun, 15 Feb 2026 UTC via an FALCON 9 launch vehicle from the Air Force Western Test Range (AFWTR). Payload-class satellites include a variety of spacecraft equipped with specific instruments for various scientific and technological missions. These include communications satellites like Starlink; space stations such as the ISS; scientific satellites like the Hubble; Earth observation satellites from companies like Planet Labs, Umbra, and HawkEye 360; GPS; miniature CubeSats for education and research; and military/defense satellites.

Loading next visibility...
Identifier
67813, 2026-032S
Orbit
SSO
Country
Flag of USUS
Related business
Manufacturer
SpaceX/Seattle
Mission
Operational Commercial Communications
Bus & Motor
STARLINK V2MO, Unknown motor
Mass
575 kg wet, ~530 kg dry
Launch date (UTC)
2026-02-15 (4 months ago)
Launch vehicle
FALCON 9
Launch site
Air Force Western Test Range (AFWTR)
Object type
Payload
Rocket body
Debris
Shape & HBR
Box + 2 Pan, 17.7 m
Radar Cross Section
36.964 m², Large (>1 m²)

Expand to show TLE details & history
Last TLE update: 1 day ago

TLE from 1 day ago
0 STARLINK-36732
1 67813U 26032S   26170.48379927  .00013522  00000-0  42031-3 0  9999
2 67813  97.2865 358.2569 0001639  85.9465 274.1965 15.33453780 20564
Epoch: 2026-06-19T11:36Z
TLE epoch observation values (Epoch: 2026-06-19T11:36:40.256Z)
Latitude
-0.00006°
Longitude
-83.62295°
Altitude
468.547 km
Speed
7.632 km/s
True Right ascension
23h 53m 01s
True Declination
0° 00' 00"
Sunlit
Object was in daylight at epoch
Visualization orbit readout
Latitude
Unknown
Longitude
Unknown
Altitude
Unknown
Speed
Unknown
Apparent Right ascension
Unknown
Apparent Declination
Unknown
Sunlit
N/A
Visualization observer readout
Local Sidereal Time
07:16:45
Azimuth
Unknown
Elevation
Unknown
Doppler factor
Unknown
Orbital elements
Apogee altitude
463.581 km
Perigee altitude
461.339 km
Semi-major axis
6,840.597 km
Eccentricity
0.00016
Inclination
97.2865°
RAAN
358.2569°
Arg. of periapsis
85.9465°
True anomaly
274.17777°
Mean anomaly
274.1965°
Eccentric anomaly
274.18713°
Mean motion
3.83621 °/min
Orbital period
93.84 mins
BSTAR
0.00042031
Loading maneuver chart data...
Computing Atmospheric mass density...
Loading historical data...
Loading historical data...
Loading historical data...
Loading historical data...
Loading historical data...
Loading historical data...
Loading historical data...

Documentation

Showing up to 5 results
|